Alexandria, Egypt

5:34 AM EET on December 17, 2017 (GMT +0200)
Alexandria

Weather History for HEAX - November, 2011

Change the Weather History Date:

Friday, November 11, 2011

  Actual Average Record
Temperature  
Mean Temperature 65 °F -  
Max Temperature 75 °F 69 °F 82 °F (2004)
Min Temperature 55 °F 54 °F 51 °F (2002)
Growing Degree Days 15 (Base 50)    
Moisture  
Dew Point 59 °F    
Average Humidity 78    
Maximum Humidity 94    
Minimum Humidity 61    
Precipitation  
Precipitation 0.00 in 0.05 in - ()
Sea Level Pressure  
Sea Level Pressure 30.02 in    
Wind  
Wind Speed 2 mph ()    
Max Wind Speed 9 mph    
Max Gust Speed -    
Visibility 4.6 miles    
Events      
Averages and records for this station are not official NWS values.
T = Trace of Precipitation, MM = Missing Value Source: Averaged Metar Reports

Daily Weather History Graph

Daily Weather History Graph

Search for Another Location

Airport or City:

Trip Planner

Search our weather history database for the weather conditions in past years. The results will help you decide how hot, cold, wet, or windy it might be!

Date:

Astronomy

Nov. 11, 2011 Rise Set
Actual Time 6:23 AM EET 5:04 PM EET
Civil Twilight 5:58 AM EET 5:29 PM EET
Nautical Twilight 5:29 AM EET 5:59 PM EET
Astronomical Twilight 5:00 AM EET 6:27 PM EET
Moon 5:24 PM EET (11/11) 6:48 AM EET (11/11)
Length of Visible Light 11h 31m
Length of Day
10h 41m
Full, 100% of the Moon is Illuminated
Nov 11
Full
Nov 18
Last Quarter
Nov 25
New
Dec 2
First Quarter
Dec 10
Full

Hourly Weather History & Observations

Time (EET) Temp. Dew Point Humidity Pressure Visibility Wind Dir Wind Speed Gust Speed Precip Events Conditions
12:00 AM 60.8 °F 57.2 °F 88% 30.01 in - Calm Calm - N/A   Clear
1:00 AM 60.8 °F 57.2 °F 88% 30.01 in - Calm Calm - N/A   Clear
2:00 AM 57.2 °F 55.4 °F 94% 30.01 in - Calm Calm - N/A   Clear
3:00 AM 57.2 °F 55.4 °F 94% 29.98 in - Calm Calm - N/A   Clear
4:00 AM 57.2 °F 55.4 °F 94% 30.01 in - Calm Calm - N/A   Clear
5:00 AM 55.4 °F 53.6 °F 94% 30.01 in 2.5 mi Calm Calm - N/A   Mist
6:00 AM 55.4 °F 53.6 °F 94% 30.01 in 2.5 mi Calm Calm - N/A   Mist
7:00 AM 57.2 °F 55.4 °F 94% 30.04 in 2.5 mi Calm Calm - N/A   Partly Cloudy
8:00 AM 60 °F 55 °F 78% 30.03 in 2 mi Calm Calm - -   Mist
8:00 AM 60.8 °F 55.4 °F 82% 30.04 in 2.5 mi Calm Calm - N/A   Mist
9:00 AM 68.0 °F 60.8 °F 78% 30.04 in - ESE 3.5 mph - N/A   Clear
10:00 AM 75.2 °F 64.4 °F 69% 30.04 in - East 3.5 mph - N/A   Clear
11:00 AM 75.2 °F 60.8 °F 61% 30.01 in 6.2 mi East 2.3 mph - N/A   Partly Cloudy
12:00 PM 75.2 °F 60.8 °F 61% 30.01 in 6.2 mi NNW 4.6 mph - N/A   Partly Cloudy
1:00 PM 75.2 °F 60.8 °F 61% 30.01 in - North 9.2 mph - N/A   Clear
2:00 PM 75.2 °F 60.8 °F 61% 29.98 in - North 9.2 mph - N/A   Clear
3:00 PM 75.2 °F 60.8 °F 61% 29.98 in - North 9.2 mph - N/A   Clear
4:00 PM 75.2 °F 60.8 °F 61% 29.98 in - NNE 5.8 mph - N/A   Clear
5:00 PM 73.4 °F 59.0 °F 61% 29.98 in - NE 9.2 mph - N/A   Clear
6:00 PM 71.6 °F 60.8 °F 69% 30.01 in 6.2 mi NE 8.1 mph - N/A   Partly Cloudy
7:00 PM 69.8 °F 59.0 °F 68% 30.04 in - ENE 5.8 mph - N/A   Clear
8:00 PM 68 °F 61 °F 73% 30.03 in 6 mi NNE 6.9 mph - -  
8:00 PM 68.0 °F 60.8 °F 78% 30.04 in - NNE 6.9 mph - N/A   Clear
9:00 PM 68.0 °F 60.8 °F 78% 30.04 in 6.2 mi NNE 5.8 mph - N/A   Partly Cloudy
10:00 PM 66.2 °F 62.6 °F 88% 30.04 in 6.2 mi NNE 5.8 mph - N/A   Partly Cloudy
11:00 PM 64.4 °F 62.6 °F 94% 30.01 in 6.2 mi NE 3.5 mph - N/A   Partly Cloudy